Wind_Speed
12 13 13 14 15 15 15 16 15 15 15 14 15 15 16 16 17 17 18 18 18 18 18 18 18 17 17 16 16 16 15 14 14 14 14 13 12 11 10 8 6 5 4
14 15 16 17 17 17 18 18 18 18 18 18 18 18 19 19 19 19 20 20 20 20 19 19 19 19 18 18 17 17 16 16 15 15 15 14 14 13 11 10 8 6 4
15 16 17 18 18 19 19 19 20 20 20 20 21 22 22 22 21 22 22 22 22 22 22 21 21 20 19 19 18 18 17 17 16 15 15 15 14 14 13 12 10 8 6
17 18 18 19 19 20 20 20 21 22 23 23 24 25 25 25 25 24 24 24 24 24 24 23 23 22 21 20 19 19 18 17 17 16 15 15 15 15 14 13 11 9 8
18 18 19 19 19 20 20 21 22 23 24 25 26 26 26 26 26 25 25 25 25 26 25 25 24 23 23 21 20 20 19 18 17 16 16 15 15 14 14 13 12 11 9
18 19 19 19 19 20 20 20 20 21 22 24 25 25 25 26 26 26 26 26 26 27 27 27 26 25 24 23 22 21 20 19 18 17 16 15 14 14 14 13 13 12 11
18 18 18 18 18 18 18 18 18 19 20 21 22 23 24 25 24 25 25 26 26 27 27 27 27 27 26 25 24 23 21 20 19 17 16 15 14 14 14 13 12 12 11
17 17 16 16 16 16 16 17 17 17 18 18 20 21 22 24 25 25 25 27 27 28 28 28 28 28 27 26 25 24 23 21 20 18 17 15 15 14 14 13 13 13 12
16 15 14 14 15 15 16 16 17 17 18 18 18 19 20 22 23 24 26 27 28 28 29 29 29 29 28 27 26 25 24 23 21 19 17 15 15 15 14 14 13 13 13
14 14 14 13 13 14 15 15 16 17 17 18 18 19 19 20 21 22 24 27 29 29 29 29 29 29 29 28 27 26 25 24 22 20 18 16 16 15 15 14 14 13 13
13 13 13 13 14 14 14 15 16 17 18 18 18 19 19 20 20 21 22 24 25 27 28 29 30 29 29 28 27 27 25 24 22 20 18 18 17 16 16 15 14 14 14
11 12 12 13 14 14 15 15 16 17 18 18 18 19 19 20 20 20 21 21 23 24 26 27 29 29 28 27 27 27 27 25 23 21 19 19 18 17 17 16 15 15 14
11 11 12 13 13 14 15 16 17 18 18 19 19 19 19 19 19 20 20 20 20 21 23 24 26 27 27 26 25 26 27 25 24 22 20 19 19 17 17 17 16 15 15
10 11 11 12 13 14 15 16 17 18 19 19 20 19 19 19 19 18 19 19 19 19 20 21 23 25 27 25 25 25 26 26 25 23 21 19 19 18 17 17 16 16 16
10 10 11 12 13 14 16 17 18 19 19 20 20 20 20 19 19 18 18 18 18 18 18 19 20 22 25 26 25 25 25 26 24 23 21 19 19 18 18 17 16 16 16
9 10 11 12 14 15 16 17 18 19 20 20 20 20 20 19 18 17 16 16 16 16 17 18 18 19 21 24 23 23 24 25 24 24 23 20 20 19 18 18 17 17 17
9 10 11 12 13 15 16 17 18 19 20 21 21 20 20 18 17 16 14 14 14 14 14 16 17 18 19 21 22 22 23 25 24 24 24 22 20 19 19 18 17 17 17
9 10 11 12 14 15 16 17 18 19 20 21 21 20 19 18 16 15 13 12 11 12 12 14 15 15 18 20 21 22 23 25 24 24 24 23 21 20 19 19 18 17 17
9 10 11 12 14 15 16 17 18 19 20 20 21 20 19 18 16 14 12 11 10 10 10 11 13 14 16 19 20 21 23 24 25 25 25 23 22 21 20 19 19 18 17
9 10 11 12 13 15 16 17 18 19 19 20 20 20 19 18 16 14 13 11 9 8 9 9 11 13 14 17 19 20 22 24 25 25 25 24 23 22 21 20 20 18 17
9 10 11 12 14 15 16 17 18 18 19 19 20 20 19 18 16 15 13 11 9 7 7 7 9 11 13 15 17 19 20 23 24 25 25 24 24 24 22 21 21 19 18
9 10 11 12 13 15 16 17 17 18 18 19 19 19 18 17 16 15 13 11 8 6 5 4 6 9 11 13 14 16 18 20 22 23 24 24 25 25 24 22 21 20 19
9 10 11 12 13 14 15 16 17 17 18 18 18 18 18 17 16 15 13 11 8 6 4 3 3 6 9 12 13 14 15 17 19 22 22 23 23 25 25 23 23 22 21
10 10 10 11 13 14 15 16 17 17 17 17 17 17 17 16 15 14 13 11 9 6 4 3 1 4 7 10 12 12 14 15 16 19 21 22 22 23 24 25 25 24 23
9 9 10 11 12 13 14 15 16 16 16 16 16 16 16 16 15 14 13 12 10 7 6 4 2 2 5 7 9 11 13 15 15 17 18 19 21 22 23 25 25 25 25
9 9 9 10 12 13 14 15 15 15 15 15 15 15 15 15 14 13 13 12 11 8 6 5 3 1 2 4 6 9 12 14 15 16 17 18 20 21 22 23 25 25 25
Wind_Direction
299 297 295 293 291 289 286 284 281 277 275 273 269 264 261 259 258 256 255 253 251 249 248 247 246 246 246 245 245 246 247 248 247 248 247 248 250 252 256 261 272 292 310
298 296 294 292 290 288 286 284 282 278 275 274 271 267 262 259 257 255 255 253 251 249 248 247 246 246 246 247 247 246 247 248 249 249 247 247 248 249 251 254 259 272 286
300 299 297 294 291 289 287 284 284 280 277 275 272 270 265 260 257 254 253 252 251 249 247 246 245 245 246 247 247 246 247 248 250 250 247 245 244 245 246 248 251 255 265
303 301 299 296 293 290 287 283 282 279 276 274 273 273 269 265 260 257 253 251 251 249 248 246 245 245 245 246 247 246 246 247 248 249 247 244 242 241 242 243 245 248 253
304 302 299 297 296 293 289 285 283 281 278 275 274 274 271 267 263 260 257 252 251 250 249 248 246 245 245 245 246 246 245 246 248 247 246 244 242 239 239 240 241 244 246
303 303 302 302 301 298 295 293 291 288 283 281 278 275 270 268 266 262 260 256 253 251 250 249 247 245 245 245 245 245 245 246 246 244 243 242 238 238 236 236 238 240 241
305 307 307 308 308 306 305 304 301 296 291 288 284 279 273 271 267 264 261 259 256 253 252 250 247 246 244 244 244 244 245 245 243 242 240 239 235 235 233 234 234 234 235
309 312 313 314 315 314 313 312 309 308 305 300 294 287 281 276 273 269 263 261 258 256 253 251 248 246 242 243 243 243 243 242 241 240 238 237 235 235 232 230 230 230 228
313 315 317 318 319 320 321 318 316 314 311 308 303 296 288 282 278 273 267 264 260 258 255 252 249 245 242 241 240 239 240 240 238 238 236 235 233 232 229 228 227 224 223
317 319 322 324 325 325 325 325 324 321 318 314 310 304 296 288 282 277 271 266 263 259 256 253 249 246 243 240 239 237 236 236 235 235 233 232 231 228 226 227 224 222 220
320 324 327 331 332 331 331 329 328 327 323 319 315 309 302 295 289 282 277 271 265 260 257 254 250 246 244 238 236 234 233 233 233 231 231 230 228 225 224 224 221 218 217
323 327 330 333 333 334 335 335 333 330 327 323 318 313 307 300 294 287 280 275 269 262 258 254 251 247 243 237 233 232 230 230 228 227 227 227 224 223 223 221 218 216 216
326 329 332 334 336 337 338 337 335 333 331 328 324 318 312 306 298 290 283 277 272 265 259 253 248 244 240 235 232 230 228 227 226 226 226 223 221 221 221 219 215 214 213
328 332 334 336 338 339 339 338 337 336 334 332 328 323 317 311 305 294 284 278 274 268 261 254 246 241 238 234 232 229 227 226 227 225 224 222 219 220 219 216 214 213 213
329 332 334 336 337 337 338 339 339 338 336 334 332 328 323 316 309 300 289 281 275 268 260 254 246 241 238 234 232 229 226 226 226 222 222 221 219 219 218 216 213 212 213
328 331 332 335 336 337 338 339 339 339 338 336 334 331 328 323 316 308 295 284 276 269 263 254 245 239 236 233 229 227 223 223 222 220 218 220 220 219 217 215 214 214 215
325 328 331 335 337 338 339 340 340 341 340 338 336 333 330 328 324 315 304 290 279 272 265 255 247 238 231 231 230 224 219 218 217 216 216 219 219 218 216 215 215 214 217
322 326 330 334 336 338 339 339 340 342 342 342 340 338 336 334 330 323 314 301 286 275 266 255 246 238 230 229 228 222 218 216 215 213 215 215 215 217 216 216 214 214 215
319 323 329 333 335 337 338 339 340 342 343 344 343 342 341 341 338 332 324 312 296 283 271 256 245 235 230 226 223 220 217 215 215 211 213 212 213 214 214 215 214 214 213
314 319 327 332 335 337 337 338 340 342 344 346 346 346 346 346 344 338 331 322 309 292 279 261 245 233 230 225 222 220 217 216 215 212 212 212 213 215 214 215 215 212 211
311 316 323 330 334 336 338 338 339 341 344 346 348 349 349 349 348 346 339 332 323 305 291 272 251 233 225 221 221 221 218 216 215 215 214 213 213 216 217 216 214 214 213
308 313 321 328 332 334 337 338 339 341 344 347 349 351 351 352 352 352 348 342 335 322 305 277 252 231 222 219 217 220 223 219 216 215 216 215 214 215 216 216 216 214 214
305 311 318 325 330 332 335 338 340 341 344 347 350 353 354 354 355 357 357 353 347 339 326 300 253 226 216 215 217 220 219 218 218 216 217 218 218 218 217 217 219 218 219
302 308 316 323 328 331 334 337 340 342 344 347 350 353 356 357 358 1 4 5 1 355 351 342 275 211 208 213 218 217 215 214 218 218 216 219 221 221 218 218 221 222 224
297 305 312 321 327 330 334 337 339 341 344 347 350 353 356 359 2 4 8 12 13 11 7 3 17 174 193 206 215 217 217 217 219 217 218 221 222 221 220 220 223 224 224
293 300 308 317 324 329 334 336 338 340 343 346 349 353 356 359 3 7 10 14 18 19 21 24 39 84 181 206 220 221 221 222 223 221 221 222 222 221 221 224 225 226 224
Height
5874 5873 5873 5872 5871 5870 5869 5869 5868 5868 5867 5867 5867 5866 5866 5866 5866 5866 5866 5866 5867 5867 5868 5868 5869 5869 5870 5871 5871 5872 5872 5873 5873 5874 5875 5875 5876 5877 5877 5878 5879 5879 5879
5872 5871 5870 5869 5868 5867 5866 5866 5865 5864 5864 5864 5863 5863 5862 5862 5863 5863 5863 5863 5864 5864 5865 5865 5866 5867 5868 5868 5869 5870 5870 5871 5871 5872 5872 5873 5874 5875 5876 5877 5878 5878 5879
5870 5869 5867 5866 5865 5864 5863 5862 5861 5861 5860 5860 5859 5859 5859 5858 5858 5859 5859 5859 5860 5861 5861 5862 5863 5864 5865 5866 5866 5867 5868 5868 5869 5870 5870 5871 5872 5873 5874 5875 5877 5877 5878
5867 5866 5864 5863 5862 5861 5860 5858 5857 5856 5856 5855 5854 5854 5854 5854 5854 5854 5855 5855 5856 5857 5858 5859 5860 5861 5862 5863 5864 5864 5865 5866 5866 5867 5868 5869 5870 5871 5872 5874 5875 5876 5877
5864 5862 5861 5859 5858 5857 5855 5854 5853 5852 5851 5850 5849 5849 5849 5849 5849 5849 5850 5850 5851 5852 5853 5854 5856 5857 5858 5860 5861 5861 5862 5863 5864 5864 5865 5866 5867 5869 5870 5872 5873 5875 5876
5861 5859 5857 5856 5854 5853 5851 5850 5849 5847 5846 5845 5844 5844 5843 5843 5843 5844 5844 5845 5846 5847 5849 5850 5851 5853 5854 5856 5857 5858 5859 5860 5861 5862 5863 5864 5865 5866 5868 5869 5871 5873 5874
5858 5856 5854 5853 5851 5849 5848 5846 5845 5843 5842 5840 5839 5838 5838 5838 5838 5838 5839 5840 5841 5842 5844 5845 5846 5848 5850 5852 5854 5855 5856 5857 5858 5859 5860 5861 5863 5864 5866 5867 5869 5871 5872
5855 5854 5852 5850 5848 5847 5845 5843 5841 5839 5838 5836 5835 5834 5833 5833 5833 5833 5833 5834 5835 5837 5838 5840 5841 5843 5845 5847 5849 5851 5853 5854 5856 5857 5858 5859 5861 5862 5864 5865 5867 5869 5871
5852 5851 5849 5848 5846 5844 5842 5840 5838 5836 5834 5833 5831 5830 5828 5828 5827 5827 5827 5828 5829 5830 5832 5833 5835 5838 5840 5842 5845 5847 5849 5851 5853 5854 5856 5857 5858 5860 5862 5863 5865 5867 5869
5850 5848 5847 5846 5844 5842 5840 5838 5835 5833 5831 5829 5827 5826 5824 5823 5822 5821 5822 5822 5823 5824 5825 5827 5829 5832 5835 5837 5840 5842 5845 5847 5849 5851 5853 5855 5855 5857 5859 5861 5863 5865 5867
5848 5846 5845 5843 5842 5840 5838 5836 5833 5831 5829 5826 5824 5822 5820 5819 5817 5816 5816 5816 5816 5817 5819 5821 5823 5826 5829 5832 5835 5838 5840 5843 5846 5848 5851 5852 5853 5855 5857 5859 5861 5863 5865
5846 5845 5843 5842 5840 5838 5836 5834 5831 5829 5826 5824 5821 5819 5816 5814 5813 5812 5811 5811 5811 5811 5813 5815 5817 5820 5823 5826 5829 5832 5836 5839 5842 5845 5847 5849 5851 5853 5855 5857 5859 5861 5864
5845 5843 5842 5840 5838 5837 5834 5832 5830 5827 5824 5821 5818 5815 5813 5810 5808 5807 5806 5806 5805 5806 5807 5809 5811 5814 5817 5821 5824 5828 5831 5835 5839 5841 5844 5846 5848 5850 5852 5855 5857 5859 5862
5843 5842 5841 5839 5837 5835 5833 5831 5828 5825 5822 5819 5815 5812 5809 5806 5804 5802 5801 5800 5800 5801 5802 5803 5805 5809 5812 5815 5819 5823 5827 5831 5834 5838 5841 5843 5845 5848 5850 5852 5855 5857 5860
5842 5841 5839 5838 5836 5834 5832 5829 5826 5823 5820 5816 5813 5809 5806 5803 5800 5798 5796 5796 5796 5796 5797 5799 5801 5803 5806 5809 5813 5817 5822 5826 5830 5834 5837 5840 5843 5845 5847 5850 5852 5855 5858
5841 5840 5838 5837 5835 5833 5831 5828 5825 5822 5818 5814 5811 5807 5803 5799 5796 5794 5792 5791 5791 5792 5793 5794 5796 5799 5801 5805 5808 5812 5816 5821 5826 5830 5833 5837 5840 5843 5845 5848 5850 5853 5856
5840 5839 5838 5836 5834 5832 5829 5827 5824 5820 5816 5813 5809 5805 5801 5797 5793 5790 5789 5788 5787 5788 5788 5790 5792 5794 5797 5800 5804 5808 5812 5817 5821 5825 5830 5833 5837 5840 5843 5845 5848 5850 5853
5839 5838 5837 5835 5833 5831 5828 5826 5823 5819 5815 5811 5807 5803 5799 5795 5791 5788 5786 5785 5784 5784 5785 5786 5788 5790 5793 5796 5800 5804 5809 5813 5816 5821 5825 5830 5833 5837 5840 5843 5846 5848 5851
5838 5837 5836 5834 5832 5830 5828 5825 5822 5818 5814 5810 5806 5801 5797 5793 5790 5787 5784 5783 5782 5781 5782 5783 5785 5787 5790 5793 5796 5800 5805 5809 5813 5817 5822 5827 5831 5834 5837 5840 5843 5846 5849
5837 5836 5835 5833 5831 5829 5827 5824 5821 5817 5813 5809 5805 5800 5796 5792 5789 5786 5783 5781 5780 5779 5779 5780 5782 5784 5786 5790 5793 5797 5801 5805 5809 5814 5819 5823 5827 5830 5834 5837 5841 5844 5847
5835 5834 5833 5832 5830 5828 5826 5823 5820 5817 5813 5809 5805 5800 5796 5792 5788 5785 5782 5780 5778 5778 5778 5778 5779 5781 5784 5787 5790 5794 5798 5802 5806 5811 5815 5820 5823 5827 5831 5834 5838 5841 5844
5834 5833 5832 5831 5829 5827 5825 5822 5819 5816 5812 5808 5804 5800 5796 5792 5788 5785 5782 5780 5778 5776 5776 5776 5777 5779 5781 5785 5788 5792 5795 5800 5803 5807 5812 5816 5819 5823 5827 5831 5835 5839 5842
5833 5832 5831 5830 5828 5826 5824 5821 5819 5815 5812 5808 5804 5800 5796 5793 5789 5785 5782 5779 5777 5776 5775 5775 5776 5777 5780 5783 5786 5790 5793 5797 5800 5804 5808 5812 5816 5819 5823 5828 5832 5835 5839
5832 5831 5830 5828 5827 5825 5823 5821 5818 5815 5812 5808 5805 5801 5797 5793 5790 5786 5783 5780 5778 5777 5776 5775 5776 5777 5779 5781 5784 5787 5791 5794 5798 5801 5805 5809 5812 5816 5820 5824 5827 5831 5835
5830 5829 5828 5827 5826 5824 5822 5820 5817 5814 5811 5808 5805 5801 5798 5794 5791 5787 5784 5781 5779 5778 5777 5776 5776 5777 5778 5781 5783 5786 5788 5792 5795 5798 5802 5805 5809 5813 5817 5821 5824 5827 5830
5828 5828 5827 5826 5825 5823 5821 5819 5816 5814 5811 5808 5805 5802 5798 5795 5792 5788 5785 5783 5781 5779 5778 5777 5777 5777 5778 5780 5782 5784 5786 5789 5792 5795 5798 5802 5805 5809 5812 5816 5819 5823 5825